RA601 ENBR-ENBR

Flight info

Callsign RA601
Flight time N/A
Altitude 2000
Route EPOTU DCT MODNI
Aircraft C172/L-SFG/C

Departure

Time 2026-05-07 21:16
Airport Bergen Airport, Flesland (ENBR)

Arrival

Time N/A
Airport Bergen Airport, Flesland (ENBR)
Time Latitude Longitude Altitude Speed Heading
2026-05-07 21:14 60.28608 5.22562 160 ft 0 kts 264°
2026-05-07 21:14 60.28652 5.22429 160 ft 27 kts 291°
2026-05-07 21:14 60.28668 5.22017 157 ft 17 kts 272°
2026-05-07 21:15 60.28673 5.21992 157 ft 9 kts 45°
2026-05-07 21:15 60.28881 5.21958 157 ft 54 kts 352°
2026-05-07 21:15 60.29304 5.21736 240 ft 73 kts 344°
2026-05-07 21:15 60.29852 5.21500 438 ft 85 kts 351°
2026-05-07 21:16 60.30367 5.21281 761 ft 82 kts 345°
2026-05-07 21:16 60.31003 5.21098 891 ft 100 kts 358°
2026-05-07 21:16 60.31727 5.20794 1025 ft 112 kts 338°
2026-05-07 21:16 60.32515 5.20715 1167 ft 118 kts 10°
2026-05-07 21:17 60.33353 5.20899 1308 ft 123 kts
2026-05-07 21:17 60.34209 5.21089 1437 ft 124 kts
2026-05-07 21:17 60.35064 5.21268 1600 ft 124 kts
2026-05-07 21:17 60.35917 5.21456 1763 ft 123 kts
2026-05-07 21:18 60.36769 5.21639 1922 ft 123 kts
2026-05-07 21:18 60.37620 5.21814 2077 ft 123 kts
2026-05-07 21:18 60.38471 5.21988 2233 ft 123 kts
2026-05-07 21:18 60.39323 5.22160 2387 ft 123 kts
2026-05-07 21:19 60.40172 5.22326 2543 ft 123 kts
2026-05-07 21:19 60.41029 5.22488 2704 ft 125 kts
2026-05-07 21:19 60.41889 5.22651 2857 ft 126 kts
2026-05-07 21:19 60.42767 5.22814 3014 ft 127 kts
2026-05-07 21:20 60.43655 5.22976 3165 ft 127 kts
2026-05-07 21:20 60.44535 5.23128 3322 ft 127 kts
2026-05-07 21:20 60.45414 5.23280 3476 ft 126 kts
2026-05-07 21:20 60.46290 5.23428 3628 ft 126 kts
2026-05-07 21:21 60.47165 5.23574 3770 ft 126 kts
2026-05-07 21:21 60.48038 5.23717 3925 ft 126 kts
2026-05-07 21:21 60.48897 5.23856 4078 ft 125 kts
2026-05-07 21:21 60.49767 5.23994 4242 ft 125 kts
2026-05-07 21:22 60.50621 5.24123 4446 ft 122 kts
2026-05-07 21:22 60.51462 5.24248 4655 ft 121 kts
2026-05-07 21:22 60.52300 5.24365 4868 ft 121 kts
2026-05-07 21:22 60.53134 5.24480 5071 ft 119 kts
2026-05-07 21:23 60.53962 5.24597 5270 ft 118 kts
2026-05-07 21:23 60.54782 5.24719 5476 ft 119 kts
2026-05-07 21:23 60.55592 5.24835 5677 ft 117 kts
2026-05-07 21:23 60.56409 5.24961 5885 ft 118 kts 11°
2026-05-07 21:24 60.56989 5.25841 6096 ft 100 kts 75°
2026-05-07 21:24 60.57370 5.27047 6310 ft 101 kts 72°
2026-05-07 21:24 60.57742 5.28252 6519 ft 100 kts 72°
2026-05-07 21:24 60.58116 5.29448 6707 ft 99 kts 72°
2026-05-07 21:25 60.58482 5.30605 6900 ft 96 kts 71°
2026-05-07 21:25 60.58845 5.31796 6985 ft 110 kts 71°
2026-05-07 21:25 60.58978 5.32257 6985 ft 116 kts 72°
2026-05-07 21:25 60.59387 5.33767 6981 ft 126 kts 72°
2026-05-07 21:26 60.59815 5.35348 6912 ft 135 kts 72°
2026-05-07 21:26 60.60299 5.37268 5919 ft 169 kts 72°
2026-05-07 21:26 60.60810 5.39492 4675 ft 175 kts 72°
2026-05-07 21:26 60.61302 5.41765 3407 ft 174 kts 72°
2026-05-07 21:27 60.61765 5.44045 2063 ft 172 kts 69°
2026-05-07 21:27 60.62153 5.46239 1485 ft 153 kts 72°
2026-05-07 21:27 60.62472 5.48121 1469 ft 133 kts 72°
2026-05-07 21:27 60.62695 5.49411 1506 ft 126 kts 71°
2026-05-07 21:28 60.62962 5.50966 1573 ft 123 kts 71°
2026-05-07 21:28 60.63245 5.52606 1642 ft 122 kts 72°
2026-05-07 21:28 60.63526 5.54233 1715 ft 122 kts 71°
2026-05-07 21:28 60.63971 5.55649 1842 ft 121 kts 32°
2026-05-07 21:29 60.64784 5.55686 1965 ft 119 kts 349°
2026-05-07 21:29 60.65317 5.55678 2058 ft 113 kts
2026-05-07 21:29 60.66098 5.55832 2200 ft 112 kts
2026-05-07 21:29 60.67142 5.56085 2387 ft 115 kts
2026-05-07 21:30 60.67941 5.56296 2528 ft 116 kts
2026-05-07 21:30 60.68483 5.56444 2627 ft 116 kts
2026-05-07 21:30 60.69269 5.56658 2772 ft 114 kts
2026-05-07 21:30 60.70056 5.56875 2932 ft 113 kts
2026-05-07 21:31 60.70837 5.57095 3104 ft 113 kts 10°
2026-05-07 21:31 60.71618 5.57313 3279 ft 113 kts 10°
2026-05-07 21:31 60.72400 5.57530 3457 ft 113 kts 11°
2026-05-07 21:31 60.73180 5.57748 3635 ft 116 kts 12°
2026-05-07 21:32 60.73993 5.57978 3805 ft 119 kts 12°
2026-05-07 21:32 60.74822 5.58208 3961 ft 119 kts 11°
2026-05-07 21:32 60.75674 5.58444 3974 ft 127 kts 11°
2026-05-07 21:32 60.76551 5.58695 3977 ft 127 kts 11°
2026-05-07 21:33 60.77426 5.58941 3979 ft 130 kts 11°
2026-05-07 21:33 60.78330 5.59192 3976 ft 130 kts 11°
2026-05-07 21:33 60.79235 5.59447 3984 ft 133 kts 11°
2026-05-07 21:33 60.80153 5.59702 3982 ft 133 kts 11°
2026-05-07 21:34 60.81056 5.59959 3973 ft 132 kts 11°
2026-05-07 21:34 60.81959 5.60210 3983 ft 131 kts 11°
2026-05-07 21:34 60.82874 5.60469 3977 ft 133 kts 11°
2026-05-07 21:34 60.83776 5.60718 3972 ft 131 kts 12°
2026-05-07 21:35 60.84684 5.60976 3980 ft 132 kts 12°
2026-05-07 21:35 60.85597 5.61232 3985 ft 133 kts 11°
2026-05-07 21:35 60.86519 5.61492 3984 ft 134 kts 11°
2026-05-07 21:35 60.87446 5.61755 3972 ft 134 kts 11°
2026-05-07 21:36 60.88367 5.62012 3983 ft 133 kts 12°
2026-05-07 21:36 60.89289 5.62272 3971 ft 133 kts 12°
2026-05-07 21:36 60.90201 5.62528 3974 ft 131 kts 11°
2026-05-07 21:36 60.91103 5.62784 3981 ft 132 kts 11°
2026-05-07 21:37 60.92014 5.63041 3976 ft 132 kts 12°
2026-05-07 21:37 60.92916 5.63295 3976 ft 132 kts 11°
2026-05-07 21:37 60.93829 5.63557 3977 ft 133 kts 12°
2026-05-07 21:37 60.94747 5.63812 3983 ft 133 kts 11°
2026-05-07 21:38 60.95639 5.63797 3929 ft 125 kts 350°
2026-05-07 21:38 60.96427 5.63211 3819 ft 124 kts 340°
2026-05-07 21:38 60.97296 5.62448 3634 ft 135 kts 336°
2026-05-07 21:38 60.98142 5.61514 3467 ft 142 kts 332°
2026-05-07 21:39 60.99008 5.60498 3224 ft 145 kts 333°
2026-05-07 21:39 60.99887 5.59419 2841 ft 151 kts 332°
2026-05-07 21:39 61.00796 5.58327 2358 ft 150 kts 336°
2026-05-07 21:39 61.01753 5.57610 1698 ft 146 kts 347°
2026-05-07 21:40 61.02675 5.57137 1444 ft 128 kts 349°
2026-05-07 21:40 61.03539 5.56810 1139 ft 124 kts 352°
2026-05-07 21:40 61.04304 5.56516 976 ft 93 kts 350°
2026-05-07 21:40 61.04855 5.56161 779 ft 76 kts 339°
2026-05-07 21:41 61.05372 5.55917 460 ft 77 kts 16°
2026-05-07 21:41 61.05860 5.55982 322 ft 67 kts 355°
2026-05-07 21:41 61.06194 5.55768 267 ft 26 kts 326°
2026-05-07 21:41 61.06233 5.55694 264 ft 0 kts 312°
2026-05-07 21:44 61.06229 5.55678 263 ft 0 kts 158°
2026-05-07 21:44 61.06165 5.55749 266 ft 34 kts 153°
2026-05-07 21:44 61.05858 5.56057 338 ft 58 kts 171°
2026-05-07 21:45 61.05444 5.55862 447 ft 62 kts 218°
2026-05-07 21:45 61.05194 5.55134 531 ft 75 kts 166°
2026-05-07 21:45 61.05373 5.55881 516 ft 104 kts
2026-05-07 21:45 61.06177 5.55908 510 ft 123 kts
2026-05-07 21:46 61.07034 5.55807 569 ft 124 kts 356°
2026-05-07 21:46 61.07860 5.55926 698 ft 117 kts 36°
2026-05-07 21:46 61.08366 5.57160 884 ft 111 kts 55°
2026-05-07 21:46 61.08834 5.58417 1051 ft 110 kts 54°
2026-05-07 21:47 61.09299 5.59684 1220 ft 110 kts 54°
2026-05-07 21:47 61.09757 5.60933 1394 ft 110 kts 55°
2026-05-07 21:47 61.10221 5.62200 1569 ft 110 kts 54°
2026-05-07 21:47 61.10681 5.63453 1760 ft 109 kts 55°
2026-05-07 21:48 61.11137 5.64700 1950 ft 109 kts 54°
2026-05-07 21:48 61.11592 5.65943 2149 ft 108 kts 55°
2026-05-07 21:48 61.12043 5.67178 2347 ft 107 kts 55°